timestamp,gas_concentrations,,corrected_fluxes_and_quality_flags,,,,,,,,,,storage_terms,,,turbulence,,,footprint,,
ISOdate,CO2_1_1_1,H2O_1_1_1,Tau_1_1_1,QcTau_1_1_1,H_1_1_1,QcH_1_1_1,LE_1_1_1, QcLE_1_1_1,Fc_1_1_1, QcFc_1_1_1,E_1_1_1, QcE_1_1_1,Sa_1_1_1,Sw_1_1_1,Sc_1_1_1,ustar_1_1_1,MO_length_1_1_1,ZL_1_1_1,Fetchmax_1_1_1,Fetch70_1_1_1,Fetch90_1_1_1
yyyymmddHHMM,[µmol+1mol_a-1],[mmol+1mol_a-1],[kg+1m-1s-2],[#],[W+1m-2],[#],[W+1m-2],[#],[µmol+1s-1m-2],[#],[mmol+1s-1m-2],[#],[W+1m-2],[W+1m-2],[µmol+1s-1m-2],[m+1s-1],[m],[#],[m],[m],[m]
201404170030,396.49053649170310,5.1104478121082817,1.2011625929960510,0,-31.105692797553129,0,13.625381869169548,1,-2.0238682142733286,2,0.30169978010030929,1,-9999.,-9999.,-9999.,0.99071039159021523,2630.4533303376224,8.21151234689558585E-003,108.87665486066021,199.06124951334769,298.23002547991427
201404170100,396.80851369191510,5.0902312018220099,1.4353413128194834,0,-31.335504039264006,0,29.961957371291632,1,-0.24642993407003688,1,0.66351535982388465,1,3.1789067804484370,-0.75077204151518895,0.26150291364711836,1.0834768784612292,3414.4535721490415,6.32604882262465754E-003,113.39976297013645,207.33093370881267,310.61951933848161
201404170130,400.41916909426863,5.1104922015003815,1.3051307678682560,0,-25.116120485305483,0,-37.917590978437069,0,8.7397608770907151,1,-0.83966529339888984,0,-0.89455766299962225,0.75243728015447009,2.9693469280879912,1.0331742212676440,3693.3590310891491,5.84833475927475522E-003,112.87622955293777,206.37374764975405,309.18548019987509
201404170200,401.61614262867170,5.1701042523559675,1.1356869191406849,0,-16.894114748823224,0,5.1506602053595918,2,-0.80702416404135524,2,0.11404527609853564,2,-2.9800031682329533,2.2146674933680175,0.98463080059538932,0.96365988191143370,4454.8369402012559,4.84866231692515810E-003,110.70482148810386,202.40372117215531,303.23765710288995
201404170230,412.74689114665011,5.2205120008065506,1.2235811396218907,0,-22.392566245703684,0,99.948071015494776,1,-13.999689998464202,1,2.2129888986856745,1,-0.55906449535315994,1.8721207715029198,9.1530482509244528,1.0004346970717355,3759.4966218685404,5.74545003561258583E-003,109.98032508763168,201.07911068581657,301.25314921872103
201404170300,412.60556537978130,5.2742185736187022,1.3004038760592014,0,-20.312155962585795,0,92.685963735596033,1,5.6661438531995660,1,2.0522953927070882,1,1.2292242824739463,1.9933583373668089,-0.11614624891383747,1.0316792043218201,4543.8539711140502,4.75367389386067117E-003,116.19472170106400,212.44100967531543,318.27534431406150
201404170330,403.34824559207175,5.3122332670668566,0.97938702604854067,0,-15.501267111215519,0,31.277499356844366,1,-3.2496864223191690,2,0.69263091171983193,1,2.5609043217918828,1.4100682809301390,-7.6040289776775243,0.89556790303343203,3894.3920936461982,5.54643689710673012E-003,106.43678434441220,194.60038805285663,291.54684213671214
201404170400,401.63791883713799,5.3347814265330484,1.1937038805513920,0,-14.175480449643032,0,7.3244565377635533,2,-1.5835962516649982,2,0.16220153997355505,2,0.56636998001461980,0.83626102295264149,-1.4047188624680895,0.98877070540246170,5731.3211381943156,3.76876456216257340E-003,112.53115118523503,205.74283433649285,308.24025708915161
201404170430,402.74718067312136,5.3656172402661682,1.1956213327604603,0,-8.5611371199025488,0,-32.532543285107408,2,5.9692296399663265,2,-0.72045732711514565,2,0.62207425561120511,1.1433492456959879,0.91085199443019560,0.98968034212746381,9515.2956874657521,2.27002929908453732E-003,115.14927004313863,210.52959061492311,315.41169025543780
201404170500,404.71646588850172,5.3889636260597138,0.91886500983445041,0,-14.897774167822073,0,10.723891468135122,2,-2.7520803310310038,2,0.23749917145276450,2,1.1322008763422704,0.86538491662902217,1.6166200943201130,0.86772695631524543,3685.2862788737179,5.86114574702763756E-003,104.41541709081375,190.90468403125871,286.01000406691259
201404170530,402.77544599766952,5.3988584264502704,0.70669117045498875,0,-15.422668033670535,0,-41.611678608731850,1,1.1546431539687463,1,-0.92158456767928065,1,0.59796157728033827,0.36674353777163016,-1.5933286912718940,0.76100035560970480,2401.3240514917106,8.99503754463376430E-003,105.42605577696581,192.75245387622158,288.77830000241732
201404170600,401.72509715099636,5.4272316965181071,0.87639777903443494,0,-13.808264821290823,0,-21.514574000850079,0,-0.61003171497321307,2,-0.47652156600467177,0,1.7378703431064235,1.0514325949287187,-0.86209557584987806,0.84751962688927129,3705.2136629171769,5.82962332676760075E-003,118.94512470078315,217.46962355484769,325.80912423902367
201404170630,401.18116793414163,5.4441080840177225,0.84421665619788222,0,-12.104479930795900,0,31.528561307063118,0,-2.2564578311879178,1,0.69834933412153721,0,1.0921752602852399,0.62537745224286656,-0.44645088392522619,0.83180735057190536,3996.5537367074467,5.40465646729802827E-003,119.06574576525053,217.69015733080943,326.13952402192990
201404170700,403.92533060414070,5.4716423771170319,0.55765066114992201,0,-7.5769570999120051,0,18.960190357205096,2,-4.1874811535585525,1,0.42000149936631115,2,2.3038633881271933,1.0201915649725624,2.2522977188887650,0.67606250359359532,3428.7118679813293,6.29974195315429267E-003,114.76897522504808,209.83429039864222,314.37000383116100
201404170730,401.44742545653025,5.5232157307048624,0.55503107633944937,0,-1.0008365001348478,2,3.0483750956586140,2,-6.3815624464757281,0,6.75360599835607978E-002,2,3.4426298621022493,1.9099292185911438,-2.0330304980342944,0.67460102496687424,25792.911266554529,8.37439394753726604E-004,116.72483520570262,213.41022623282555,319.72740733159225
201404170800,402.07328202651973,5.5792677770932144,0.58812101235519398,0,0.57910778171680255,0,72.892107272634220,1,-8.3616433116229878,0,1.6150955854865683,1,2.9316482962057382,2.0748455791826665,0.51331841798395395,0.69454421602941141,-48652.213501508631,-4.43967467160157427E-004,121.40719280741997,221.97106929012782,332.55311022128302
201404170830,403.75841342615871,5.6501698624152832,0.49129065968959673,0,28.158657026210602,0,25.700506820277923,1,0.70943708263888872,1,0.56959604026809840,1,6.2479180006419268,2.6214461290701405,1.3808324150080289,0.63510283782408228,-765.06593636785783,-2.82328606898194501E-002,114.46942283498275,209.28661309226808,313.54948342634066
201404170900,398.62892465556126,5.6889017094620424,0.61188998524280236,0,18.387802693175168,1,44.642464300623296,0,-5.8202173154078434,0,0.98963828213440430,0,5.9804435639569098,1.4305165099438570,-4.1997851777373940,0.70907433112151519,-1630.6524206911995,-1.32462318308424146E-002,122.38108522469253,223.75165523595757,335.22075243337707
201404170930,398.44975389912861,5.7280609815949122,0.51027637930231895,0,39.314283549904275,0,57.182149342105504,0,-2.8561225503616767,0,1.2680321527932474,0,8.1980948040994051,1.4442116568789103,-0.14653222794428586,0.64789485329522334,-581.87315938349286,-3.71214922903226330E-002,117.36430962421804,214.57938941977699,321.47902683507237
201404171000,398.34053525487110,5.7975559054175143,0.23673601691421101,0,9.3505759908666697,0,20.451114921074449,0,-1.6281983575097636,0,0.45359940398974707,0,4.9628636497720100,2.5613952204323711,-8.92844399851537018E-002,0.44140088361713270,-773.81330392453913,-2.79137097933720643E-002,107.40476940211184,196.37017346133140,294.19830317573280
201404171030,398.52199399475830,5.9114339707436541,0.28964331912875241,0,20.032217638025482,0,28.320390111658060,0,-1.2014498409294905,0,0.62825889641651933,0,4.8569569764866740,4.1940237450969384,0.14825457732212455,0.48838975796906675,-489.33852244971030,-4.41412212794259420E-002,109.03621885722015,199.35298338938583,298.66709598709190
201404171100,398.53557030475520,5.9965801965967227,0.30275183736833278,0,24.629046364631787,0,27.211674532951989,0,-1.2612377133661885,0,0.60378158618388100,0,4.9259138973279022,3.1336187042778954,1.10863118403520481E-002,0.49945645318495924,-425.76130547884935,-5.07326516572629907E-002,116.22066491965674,212.48844215306818,318.34640680906421
201404171130,405.24804413729998,6.1271467805157416,0.24238167355966225,0,28.249421266314528,0,-131.00442984659776,2,7.2660819891567687,2,-2.9072643561254083,2,4.2742356277079345,4.8028932444530250,5.4796401612830810,0.44697458045010408,-266.11989857114816,-8.11664220374905959E-002,116.66428934206380,213.29952908398096,319.56156283096152
201404171200,414.25479787372626,6.2835316981933875,0.27273618631158819,0,23.541952806751492,0,-123.24760150751951,2,36.250214337866005,2,-2.7354489250705512,2,2.9808671451994617,5.7502573648646758,7.3503977297026752,0.47422083385154279,-381.41832632556304,-5.66307345745183932E-002,120.23154633818504,219.82161259115625,329.33283240393075
201404171230,502.77763593848766,6.3865922911104187,0.24175371725829284,1,19.309297938503875,0,-9999.,-9999.,-0.26054036154561144,2,-9999.,-9999.,2.8926241570483353,-1082.0809313177124,72.216117193715348,0.44656654460339457,-388.35021220485373,-5.56199000828820414E-002,108.05316143941425,197.55564089955411,295.97434941864088
201404171300,477.60953241893532,6.4790171686290430,0.25161484621353025,0,37.087506665451087,1,-9999.,-9999.,-53.191823379232268,2,-9999.,-9999.,5.0996401086865371,-969.42505959615391,-20.515208564433319,0.45577659809362786,-214.96068899181819,-0.10048348887094485,108.26493406586826,197.94282880212705,296.55442745156859
201404171330,404.43895853787984,6.5728193357574192,0.11461935584646578,0,14.461693200228291,1,-103.24029993219779,2,14.762479185627706,2,-2.2925560346764686,2,4.7328772449741026,3.4413599590125701,-59.610723423900474,0.30770839926079241,-169.66561660377704,-0.12730923585090811,85.844626537966533,156.95135605078860,235.14173164574245
201404171400,403.19430955580771,6.5551087643570840,0.36359364011176198,1,15.655594977231699,0,39.356518537374335,2,-4.2030598473815726,2,0.87396429683931665,2,0.36419183363184149,-0.64996951362633459,-1.0143417918891293,0.54795172763636879,-885.26886514905357,-2.43993670740506492E-002,117.38707776009635,214.62101683368704,321.54139228661762
201404171430,411.13692681488300,6.3966843885900655,0.37430898957596348,0,38.990593534323892,1,-26.867319514148619,2,19.207650981759002,2,-0.59637865590203432,2,-10.360654962275456,-5.8283715543468970,6.4861443881842273,0.55538414450689477,-370.22275606221115,-5.83432532071864324E-002,110.40989710206368,201.86450533316531,302.42981351809232
201404171500,398.79039791135750,6.2657191729610737,0.44320304523253712,0,32.592338182954947,0,116.69037980531043,0,-3.7252025373313424,0,2.5894679866438977,0,-7.0784591549192060,-4.8264913180674727,-10.097083256238637,0.60388590838240619,-569.49741492591784,-3.79281791872748061E-002,118.31100795629365,216.31025590475809,324.07218023474314
201404171530,396.64691673568922,6.1292200697095875,0.35976145109119839,0,22.461210237329112,0,24.209281307413608,0,0.56166293340147189,0,0.53717673244521691,0,-2.3292663017654029,-5.0343850100141578,-1.7541696691843327,0.54387509809129586,-603.81015269183331,-3.57728334041842386E-002,105.50849468863657,192.90317849929806,289.00411295340820
201404171600,396.54545996730610,5.9483845066025749,0.51509725688440844,0,18.998672570048278,0,39.333003953823003,0,-9.62274383310843806E-002,0,0.87254759382642522,0,-5.9938162101972354,-6.6799783316953940,-8.31388944875761787E-002,0.65033323548706290,-1220.7555781338269,-1.76939596975014372E-002,116.60296635417455,213.18741110415556,319.39358966661217
201404171630,396.44896972722660,5.8036303998551189,0.40137557657707601,0,30.285115720455494,1,25.235578167048750,0,8.23846090955024923E-002,1,0.55967932507762053,0,-6.1616657061544204,-5.3561173744142234,-7.91823859152381709E-002,0.57364591016342692,-525.75765299374166,-4.10835674516698210E-002,104.98742544379671,191.95049773321881,287.57682356465659
201404171700,396.34269752462512,5.7407209619336319,0.49763695707396105,0,7.7214439912711947,0,19.085787020087302,1,6.27878010102088102E-002,1,0.42320086791778033,1,-5.2124015442798450,-2.3315044259213771,-8.73326417992310033E-002,0.63828363105060515,-2841.9003153675167,-7.60054808509589598E-003,114.86096695237765,210.00248061545730,314.62198342422016
201404171730,396.56477028478281,5.5313235329014434,0.60419048408073206,0,6.5844053736359820,0,50.963530418938603,0,-0.26870062851795012,1,1.1301251863833937,0,1.7796758414314773,-7.7586676987953869,0.18246440083724030,0.70333808511567764,-4459.2244978405924,-4.84389158035437254E-003,123.14333259801656,225.14528654072475,337.30866608079168
201404171800,397.00967814791659,5.3075657078360265,0.61539424367924445,0,-8.0099443718475847,2,37.363622570763923,0,0.36868386663288560,2,0.82841645083600057,0,-3.9210698282583092,-8.2978434040371205,0.36581105181818879,0.70955090064720638,3763.7281675635386,5.73899044733159648E-003,113.54774690236989,207.60149553398986,311.02487025541677
201404171830,397.39302659812944,5.1620681228777983,0.38667912628063178,0,-8.0177854091417018,1,28.061872871930099,0,5.13187940355867567E-002,2,0.62206641739599922,0,-4.6434848534644342,-5.4010553986647558,0.31545445310285930,0.56220166796664883,1870.4284640916603,1.15481561656460615E-002,115.98242604754090,212.05286551244924,317.69383362896104
201404171900,397.38657465804715,5.1039033087389898,0.27287581987272103,0,-11.975353927433714,0,19.614764685750419,0,5.31882406519192941E-002,0,0.43478226636718253,0,-1.8307233287245501,-2.1599239006377391,-5.31076581066609009E-003,0.47220716202289059,742.03654608434829,2.91090784058831258E-002,107.75613839487562,197.01258804349615,295.16075728307936
201404171930,397.37167355585365,5.1735019997953922,0.21708465774725219,0,-13.455860670306555,0,15.422073569236160,0,0.19963299930253342,0,0.34183135269846143,0,-1.1438668287169065,2.5861057090251052,-1.22724908605290461E-002,0.42106251963527713,468.35075328585435,4.61192810056539060E-002,110.02838971352725,201.16698815137985,301.38480567550562
201404172000,397.08346953622686,5.1319904193230581,0.35835245691692136,0,-13.112555223055811,0,20.071097429685796,0,0.30838440178059856,0,0.44483925726044121,0,-2.1692169546548037,-1.5436516556765121,-0.23752649267945058,0.54079784001632802,1018.5127404279558,2.12073930375423422E-002,122.71696456301883,224.36574978963870,336.14077797747029
201404172030,397.03271546546534,5.1426308158552114,0.24957806170077618,0,-13.744395812918983,0,14.073981589519649,0,0.29729518782339903,0,0.31189204556501804,0,-2.6110598629124242,0.39595685137451303,-4.18550871100216368E-002,0.45118137223445953,564.34192701716290,3.82746681859473040E-002,119.95349935499051,219.31325402733967,328.57121864027459
201404172100,396.94778975387578,5.0912628622285103,0.15925572613239730,0,-13.632746486288802,0,11.860024075463924,0,0.22226757674517150,0,0.26281126857308179,0,-1.6906286309583516,-1.9124134007756046,-7.00627403559454381E-002,0.36033461279496470,289.85879244844085,7.45190436265345951E-002,100.87608555918715,184.43365717954973,276.31522666757263
201404172130,396.97667345997303,4.8903690514322120,0.26537970143929290,0,-20.548837099394298,0,20.697088250357396,0,0.39018006042934084,0,0.45863983596546032,0,0.24036697027087806,-7.4791789811013976,2.38288349098773888E-002,0.46513047396549445,413.60679044084901,5.22235139732046411E-002,113.11983939759753,206.81914414116704,309.85276530587885
201404172200,396.94132755531410,4.8935933738185522,0.18667512287586366,0,-11.828588570550007,0,8.6390029149963734,1,0.24476394537332458,0,0.19142449494875416,1,-1.6751643916367518,0.12009148408580629,-2.91706928440776080E-002,0.39003677422690025,423.70848101948587,5.09784461902395639E-002,105.80075385073232,193.43752145888806,289.80465607690979
201404172230,396.79532329421937,4.7218873401821408,0.28811273942658000,0,-22.626079303000488,0,36.274103051728652,0,0.65204065367334341,0,0.80374872583061752,0,-0.60120073890289993,-6.3963019290953600,-0.12051262472432621,0.48450666261888009,424.59503757625498,5.08720029402622426E-002,113.04047165432931,206.67403459342933,309.63536476094612
201404172300,396.78620927289563,4.5550052123919933,0.34446289521406881,0,-20.769219274152210,0,19.683511164394531,1,0.30024644668586764,0,0.43611454323085447,1,-1.4993259892380664,-6.2185218838949101,-7.52463394541318543E-003,0.52969010300169173,604.39985432501851,3.57379305197259578E-002,117.09874987406229,214.09386150055400,320.75161753730561
201404172330,396.60978415968401,4.3535827969349397,0.20056179769337260,0,-25.012036691561441,0,26.698028235773304,0,0.34131323831650473,0,0.59149585917086134,0,-1.4916328217428716,-7.5079199971713892,-0.14569503828411096,0.40411378465861880,222.86062422263637,9.69215628617361158E-002,87.612433403334265,160.18347081376271,239.98402852910016
201404180000,396.52339309834690,4.2957143805244042,0.40122449509316471,0,-17.055389553326755,1,27.337304075344200,0,0.69573420622312410,1,0.60560613200845992,0,-2.2223919555301719,-2.1581808044669422,-7.13755745915617690E-002,0.57143954698440824,924.16764198038959,2.33723829084878758E-002,112.16826068126441,205.07935475724449,307.24624377762876
